Regional Weather Roundup
Issued by NWS Grand Forks, ND

Home | Current Version | Previous Version | Text Only | Print | Product List | Glossary Off
Versions: 1 2 3 4 5 6 7 8 9 10 11 12 13 14 15 16 17 18 19 20 21 22 23 24 25 26 27 28 29 30 31 32 33 34 35 36 37 38 39 40 41 42 43 44 45 46 47 48 49 50

000
ASUS43 KFGF 182331
RWRFGF
PRAIRIE TO PINES  WEATHER ROUNDUP
NATIONAL WEATHER SERVICE EASTERN NORTH DAKOTA/GRAND FORKS ND
500 PM CST SAT NOV 18 2017

 **SATELLITE DATA USED TO AUGMENT SKY COVER AT AUTOMATED STATIONS**
 *****  WEATHER ACROSS EASTERN NORTH DAKOTA  *****

CITY           SKY/WX    TMP DP  RH WIND       PRES   REMARKS
GRAND FORKS    FAIR      17   9  70 W10       30.05R WCI   5
GRAND FRKS AFB FAIR      17   8  66 W12       30.04R WCI   4
GRAND FRKS NWS   N/A     18 N/A N/A W15         N/A  WCI   3
DEVILS LAKE    FAIR      16   8  71 W14       30.05R WCI   2
FARGO          FAIR      21   9  59 NW9       30.08R WCI  11
WAHPETON ARPT  NOT AVBL
$$

 ***** WEATHER ACROSS CENTRAL AND WESTERN NORTH DAKOTA  *****

CITY           SKY/WX    TMP DP  RH WIND       PRES   REMARKS
BISMARCK       FAIR      33  18  53 W8        30.11S
MINOT          FAIR      25  13  60 W8        30.03F WCI  16
JAMESTOWN      FAIR      21  11  65 W12       30.07R WCI   9
MINOT AFB      FAIR      22  13  67 W7        30.03S WCI  14
GARRISON         N/A     26  17  68 W6        30.05S WCI  19
WILLISTON      FAIR      28  15  58 S5        30.05F WCI  23
DICKINSON      FAIR      30  19  63 W8        30.05R WCI  22
HETTINGER      FAIR      33  19  56 W12       30.10R WCI  24
$$

 *****  OTHER AIRPORT OBSERVATIONS IN OUR AREA  *****

CITY           SKY/WX    TMP DP  RH WIND       PRES   REMARKS
WALHALLA       FAIR      16   5  62 W16G26    30.02R WCI   0
GRAFTON AIRPOR FAIR      16   9  73 NW10      30.05S WCI   3
VALLEY CITY AR FAIR      18  10  73 NW14      30.08F WCI   4
CANDO          FAIR      14   7  73 W13       30.05S WCI   0
CAVALIER APRT  FAIR      16   5  62 W16       30.02R WCI   0
GWINNER          N/A     21  10  63 NW8       30.09R WCI  12
SHEYENNE NWR     N/A     22   6  49 NW10      29.95S WCI  11
ROLLA          FAIR      14   1  57 W12       30.00S WCI   0
 ***** THE ABOVE OBSERVATIONS ARE NON NWS ARE NOT QUALITY
       CONTROLLED AND MAY MIS-REPORT RAIN FOR SNOW...
$$

  *****  WEATHER ACROSS NORTHERN MINNESOTA  *****

CITY           SKY/WX    TMP DP  RH WIND       PRES   REMARKS
FLAG ISLAND    CLOUDY    16   7  67 NW12      29.93S WCI   3
WARROAD        FLURRIES  16   9  73 W10       29.96S WCI   3
ROSEAU         CLOUDY    16  10  79 W13G18    29.98R WCI   2
HALLOCK        FAIR      14   9  79 W6        30.02S WCI   5
THF RVR FALLS  FAIR      14   8  77 W9        30.01S WCI   2
BAUDETTE       CLOUDY    15   7  70 W12       29.93S WCI   2
WASKISH        FLURRIES  16  10  79 W13       29.96R WCI   2
CROOKSTON      FAIR      18  10  73 NW8       30.05R WCI   7
STEPHEN NDAWN    N/A     16   7  67 W6          N/A  WCI   7
GREENBUSH NDAW   N/A     12   7  79 W7          N/A  WCI   2
$$
  *****  WEATHER ACROSS CENTRAL AND WEST MINNESOTA  *****

CITY           SKY/WX    TMP DP  RH WIND       PRES   REMARKS
FOSSTON        FAIR      12   7  79 W9        30.01S WCI   0
BEMIDJI        FLURRIES  15   9  76 NW16      29.97S WCI  -1
PARK RAPIDS    MOCLDY    15   9  76 NW13      29.97R WCI   1
ELBOW LAKE     FAIR      21  10  64 W16       30.05R WCI   7
WADENA         FAIR      16  10  79 NW12      30.00R WCI   3
DETROIT LAKES  FAIR      19  12  73 NW14      30.03R WCI   6
MOORHEAD       FAIR      19   7  58 NW10      30.07F WCI   8
FERGUS FALLS   FAIR      19  10  68 NW21      30.08R WCI   3
MORRIS MN      FAIR      23  10  58 NW14      30.05R WCI  11
STAPLES        FAIR      16   9  73 NW12G17   29.98R WCI   3
$$
  *****  WEATHER ELSEWHERE ACROSS MINNESOTA  *****

CITY           SKY/WX    TMP DP  RH WIND       PRES   REMARKS
DULUTH         CLOUDY    22  14  71 NW18G24   29.84R WCI   7
INTRNTL FALLS  LGT SNOW  16   8  71 W14       29.91R WCI   2
ELY            FLURRIES  19  14  79 NW13G21   29.84R WCI   7
CLOQUET        FLURRIES  23  14  68 W13       29.88R WCI  11
WHEATON        FAIR      21   7  53 NW13G18   30.10R WCI   9
BRAINERD       CLOUDY    21  11  65 NW15      29.96R WCI   8
HIBBING        FLURRIES  19  12  74 NW17G26   29.88R WCI   4
ALEXANDRIA     FAIR      21  12  68 NW15      30.00R WCI   8
SAINT CLOUD    FAIR      24  14  65 NW23G30   29.96R WCI   9
MINNEAPOLIS    FAIR      29  18  63 NW15G28   29.93R WCI  18
$$

  *****  WEATHER ACROSS SOUTH DAKOTA  *****

CITY           SKY/WX    TMP DP  RH WIND       PRES   REMARKS
SIOUX FALLS    FAIR      32  17  54 NW17      30.07R WCI  21
BROOKINGS      FAIR      29  16  58 NW22G28   30.05R WCI  15
WATERTOWN      FAIR      26  13  57 NW21      30.05R WCI  12
HURON          FAIR      31  15  52 NW14      30.12R WCI  21
SISSETON         N/A     24  11  57 NW17      30.07R WCI  11
ABERDEEN       FAIR      28  12  51 NW14      30.12R WCI  17
MITCHELL       FAIR      34  19  54 NW16      30.13R WCI  24
PIERRE         FAIR      32  22  66 N7        30.13R
MOBRIDGE       FAIR      33  17  51 W7        30.10R
RAPID CITY     CLOUDY    42  19  39 NW15      30.13R
$$

  *****  SOME WEATHER IN NEARBY STATES *****

CITY           SKY/WX    TMP DP  RH WIND       PRES   REMARKS
GLASGOW MT     FAIR      34  20  56 NW6       30.06R
GREAT FALLS MT FAIR      39  18  42 SW17      30.08F
CHEYENNE WY    FAIR      37  13  37 W18       30.18R
SCOTTSBLUFF NE FAIR      42  14  32 W12       30.18R
OMAHA NE       FAIR      40  25  55 NW15      30.09R
DES MOINES IA  FAIR      39  26  59 NW14G22   29.96R
DAVENPORT IA   FAIR      39  33  79 NW16G22   29.79R
CHICAGO IL     CLOUDY    40  33  76 N18       29.61R
EAU CLAIRE WI  CLOUDY    32  20  61 NW15      29.83R WCI  22
LA CROSSE WI   CLOUDY    39  27  62 NW21G31   29.80R
$$

  *****  SOME NATIONAL WEATHER *****

CITY           SKY/WX    TMP DP  RH WIND       PRES   REMARKS
LA GUARDIA NY  LGT RAIN  50  43  77 CALM      29.63F
RALEIGH NC     MOCLDY    62  50  64 SW14      29.77S
ATLANTA GA     CLOUDY    67  59  75 S14       29.77F
NEW ORLEANS LA MOCLDY    78  68  71 SW10      29.86R
OKLAHOMA CITY  FAIR      53  31  42 N14       30.18R
ALBUQUERQUE NM FAIR      51   2  13 NW10      30.30R
SALT LAKE CITY PTSUNNY   44  21  40 N6        30.39F
LOS ANGELES CA FAIR      68  56  65 W13       30.06F
BOISE ID       FAIR      46  21  37 SE15      30.31F
SEATTLE WA     PTSUNNY   50  37  61 W7        30.17S
$$

*** WEATHER ACROSS MANITOBA...SASKATCHEWAN AND ONTARIO ***
                ***ONTARIO***

CITY           SKY/WX    TMP DP  RH WIND       PRES   REMARKS
GERALDTON      LGT SNOW  18  16  93 N3        29.72R VSB 1
THUNDER BAY    FLURRIES  23  18  80 NW12G17   29.80R WCI  12
SIOUX LOOKOUT  SNOWSHWR  14  10  85 NW6       29.82R WCI   5
TORONTO        LGT RAIN  46  45  93 E7        29.25F FOG
BIG TROUT LK   FLURRIES   9   3  78 W10       29.74S WCI  -6
PICKLE LAKE    FLURRIES  10   5  79 NW8       29.77R WCI  -1
DRYDEN         LGT SNOW  14  10  85 W8        29.84R WCI   3
KENORA         SNOWSHWR  12   7  79 W6        29.89R DRFTSNOWWCI   3
$$
                *** MANITOBA***

CITY           SKY/WX    TMP DP  RH WIND       PRES   REMARKS
BRANDON        MOCLDY    10   1  67 W12       30.01R WCI  -4
DAUPHIN        CLEAR     12   5  73 W15G21    29.98R WCI  -4
ISLAND LAKE    MOCLDY     9   1  72 W20       29.79R WCI -11
PILOT MOUND      N/A     12   3  67 W5          N/A  WCI   4
THE PAS        MOCLDY     9   1  72 W7        29.88R WCI  -3
THOMPSON       FLURRIES  10   3  72 W17       29.72R WCI  -7
WINNIPEG       PTCLDY    10   3  72 W13       29.99R WCI  -5
LYNN LAKE      FLURRIES   9   3  78 W16G23    29.71R WCI  -9
CHURCHILL      LGT SNOW   7   3  85 SW15G22   29.49S DRFTSNOWWCI -11
GILLAM         LGT SNOW   7   0  72 W15       29.64  WCI -11
$$
                ***SASKATCHEWAN***

CITY           SKY/WX    TMP DP  RH WIND       PRES   REMARKS
ESTEVAN        CLOUDY    16   9  73 W3        30.01R
KINDERSLEY     MOCLDY    10   5  79 SW8       29.88F WCI  -1
LLOYDMINSTER   CLOUDY    19  12  73 SW8       29.80F WCI   9
PRINCE ALBERT  CLOUDY     9   0  66 S3        29.95F
REGINA         MOCLDY     9   3  78 S9        29.97F WCI  -5
YORKTON        CLEAR      9   1  72 W12       29.97R WCI  -6
N. BATTLEFORD  CLOUDY    14   7  73 E5        29.90F WCI   6
LA RONGE       PTCLDY     9   1  72 SW5       29.91R WCI   0
SASKATOON      MOCLDY    10   5  79 S7        29.94F WCI   0
SWIFT CURRENT  CLEAR     28  21  74 SW14      29.92S WCI  17
$$
NOTE: THESE ARE AUTOMATED STATIONS WITH LIMITED QUALITY CONTROL
      "FAIR" INDICATES FEW OR NO CLOUDS BELOW 12,000 FEET WITH NO
      SIGNIFICANT WEATHER AND/OR OBSTRUCTIONS TO VISIBILITY.
      SKY/WX - SKY CONDITION AND SIGNIFICANT WEATHER.
      TMP - AIR TEMPERATURE.    DP   - DEWPOINT TEMPERATURE.
      RH  - RELATIVE HUMIDITY.  PRES - PRESSURE.
      HX  - HEAT INDEX.         WCI  - WIND CHILL INDEX.
$




USA.gov is the U.S. government's official web portal to all federal, state and local government web resources and services.